Location: Wiesbaden
(50.0830°N, 8.2500°E)
Time: 07:05:09
(UTC+01:00)

ISS - Pass Details

Date: 03 December 2019
Orbit: 411 x 421 km, 51.6° (Epoch: 15 December)

Event Time Altitude Azimuth Distance (km) Brightness Sun altitude
Rises 19:11:55 0° 286° (WNW) 2,363 1.2 -25.5°
Reaches altitude 10° 19:14:01 10° 285° (WNW) 1,500 -0.1 -25.8°
Enters shadow 19:15:42 27° 282° (WNW) 835 -1.7 -26.1°
